Regional Weather Roundup
Issued by NWS Green Bay, WI

Home | Current Version | Previous Version | Graphics & Text | Print | Product List | Glossary Off
Versions: 1 2 3 4 5 6 7 8 9 10 11 12 13 14 15 16 17 18 19 20 21 22 23 24 25 26 27 28 29 30 31 32 33 34 35 36 37 38 39 40 41 42 43 44 45 46 47 48 49 50

000
ASUS43 KGRB 291111
RWRGRB

NORTH-CENTRAL AND NORTHEAST WISCONSIN REGIONAL WEATHER ROUNDUP
NATIONAL WEATHER SERVICE GREEN BAY WI
600 AM CDT MON MAY 29 2017

WIZ005-009-010>012-018-019-291200-
NORTH CENTRAL WISCONSIN

CITY           SKY/WX    TMP DP  RH WIND       PRES   REMARKS
IRONWOOD       CLOUDY    51  49  92 W13       29.61
MANITOWISH WTR CLOUDY    47  47 100 SW3       29.63R
ARBOR VITAE    PTCLDY    49  48  94 SW6       29.64R
EAGLE RIVER    PTCLDY    46  46 100 SW7       29.63S
LAND O LAKES   CLOUDY    48  47  99 SW3       29.64R
RHINELANDER    CLEAR     49  46  90 W6        29.65R
PHILLIPS       PTCLDY    47  47  99 SW7       29.65S
ANTIGO         PTCLDY    47  47  98 W6        29.67R
TOMAHAWK       CLOUDY    47  45  92 CALM      29.67R
MERRILL        CLOUDY    50  48  93 W5        29.67S
$$

WIZ013-073-291200-
NORTHEAST WISCONSIN

CITY           SKY/WX    TMP DP  RH WIND       PRES   REMARKS
IRON MOUNTAIN  CLEAR     49  45  86 W6        29.61R
MARINETTE      NOT AVBL
OCONTO         PTCLDY    53  48  82 W5        29.66S
$$

WIZ017-030-035>037-045-291200-
CENTRAL WISCONSIN

CITY           SKY/WX    TMP DP  RH WIND       PRES   REMARKS
MEDFORD        MOCLDY    48  46  94 SW5       29.68R
WAUSAU         PTCLDY    50  48  93 SW5       29.67R
MOSINEE        PTCLDY    48  48 100 SW8       29.70R
MARSHFIELD     CLOUDY    49  45  86 W6        29.69R
WISC RAPIDS    PTCLDY    50  46  86 SW6       29.71R
STEVENS POINT  PTCLDY    50  46  88 W7        29.70R
WAUPACA        CLEAR     54  48  82 W6        29.70R
SHAWANO        CLOUDY    55  49  82 CALM      29.67S
CLINTONVILLE   CLOUDY    54  46  76 W3        29.67S
WAUTOMA        CLEAR     51  47  86 SW7       29.72R
$$

WIZ038-039-048-051-291200-
FOX VALLEY

CITY           SKY/WX    TMP DP  RH WIND       PRES   REMARKS
NWS GREEN BAY  RAIN      55  51  86 SW5       29.67S FOG
APPLETON       NOT AVBL
OSHKOSH        PTCLDY    53  47  79 SW6       29.70R
FOND DU LAC    CLEAR     53  47  79 SW6       29.72R
$$

WIZ022-050-052-291200-
EAST CENTRAL WISCONSIN

CITY           SKY/WX    TMP DP  RH WIND       PRES   REMARKS
EPHRAIM        FAIR     N/A N/A N/A W5        29.65S
WASHINGTON ISL PTSUNNY   51  49  93 SW8       29.64S
STURGEON BAY   CLEAR     55  49  80 SW7       29.67S
MANITOWOC      MOCLDY    54  49  83 SW7       29.70R
SHEBOYGAN      PTCLDY    51  49  92 CALM      29.71R
$$

LMZ563-521-522-541>543-291200-
LAKESHORE

STATION/POSITION TIME  TEMP    WIND        PRES    VSBY  WAVE
                       AIR SEA DIR/SP/G                  HT/PER
                 (UTC) (F)     (DEG/KT/KT) (MB)    (MI)  (FT/S)
SHEBOYGAN LKSHOR 1100   55     220/  3/  4 1005.7R
KEWAUNEE LKSHORE 1042   55     310/  4/  6 1004.7R
NORTHPORT PIER   1040   53     240/  4/  8 1004.1R
N MID LAKE BUOY  1050   44 41  220/  8/ 10 1004.6R         1/ 4
CHAMBERS ISLAND  1040   53     200/  4/  7 1004.1R
MENOMINEE LKSHOR 1036          210/  6/  8 1003.5R
$$




USA.gov is the U.S. government's official web portal to all federal, state and local government web resources and services.